This demonstration page uses our WeatherBlox Daily Observations layout. Learn more.

Left ArrowRight Arrow

39.29038, -76.61219

Hourly Observations for May 27, 2022

Temp ( °F °C ) Dew Point ( °F °C ) Humidity (%) Winds ( mph kmh ) Pressure ( in mb ) Visibility ( mi km ) Precip ( " mm )
12:12 am 00:12 Cloudy with Mist and Fog 68 20 66 18.9 93 93 SE 3 6 30.05 1017 3 4 0.00 0.00
12:24 am 00:24 Cloudy with Mist and Fog 68 20 66 18.9 93 93 SE 3 6 30.04 1017 3 5 0.00 0.00
12:54 am 00:54 Cloudy with Mist and Fog 68 20 66 18.9 93 93 SE 3 6 30.03 1017 6 10 0.00 0.00
12:58 am 00:58 Cloudy with Mist and Fog 68 20 66 18.9 93 93 SE 3 6 30.03 1017 6 10 0.00 0.00
1:54 am 01:54 Cloudy with Mist and Fog 68 20 66 18.9 93 93 SSE 5 7 30.01 1016 5 8 0.00 0.00
2:54 am 02:54 Cloudy 68 20 66 18.9 93 93 VRB 3 6 30.00 1016 7 11 0.00 0.00
3:21 am 03:21 Cloudy 68 20 66 18.9 93 93 SE 3 6 30.00 1016 8 13 0.00 0.00
3:54 am 03:54 Cloudy 68 20 66 18.9 93 93 ESE 6 9 29.98 1015 10 16 0.00 0.00
4:12 am 04:12 Cloudy 68 20 66 18.9 93 93 ESE 3 6 29.98 1015 10 16 0.00 0.00
4:54 am 04:54 Cloudy 68 20 66 18.9 93 93 SSE 3 6 29.96 1014 10 16 0.00 0.00
5:09 am 05:09 Cloudy 68 20 66 18.9 93 93 SE 7 11 29.96 1014 10 16 0.00 0.00
5:54 am 05:54 Cloudy with Mist and Fog 68 20 66 18.9 93 93 SE 6 9 29.94 1014 6 10 0.00 0.00
6:54 am 06:54 Cloudy with Mist and Fog 68 20 66 18.9 93 93 SSE 6 9 29.94 1014 4 6 0.00 0.00
7:54 am 07:54 Cloudy with Mist and Fog 68 20 66 18.9 93 93 SSE 7 11 29.93 1014 3 5 0.00 0.00
8:54 am 08:54 Cloudy with Mist and Fog 69 20.6 67 19.4 93 93 SSE 8 13 29.93 1013 3 5 0.00 0.00
9:54 am 09:54 Cloudy 71 21.7 67 19.4 87 87 SSE 7 11 29.90 1013 9 14 0.00 0.00
10:32 am 10:32 Cloudy 73 22.8 68 20 84 84 SSE 8 13 29.89 1012 10 16 0.00 0.00
10:54 am 10:54 Cloudy 74 23.3 69 20.6 85 85 SE 10 17 29.88 1012 10 16 0.00 0.00
11:54 am 11:54 Cloudy 76 24.4 69 20.6 79 79 SSE 10 17 29.86 1011 10 16 0.00 0.00
12:36 pm 12:36 Cloudy 78 25.6 69 20.6 74 74 SSE 15 24 29.83 1010 10 16 0.00 0.00
12:54 pm 12:54 Cloudy with Thunderstorms 77 25 69 20.6 77 77 S 12 19 29.83 1010 10 16 0.00 0.00
1:10 pm 13:10 Cloudy with Strong Thunderstorms 69 20.6 64 17.8 84 84 SW 9 15 29.88 1012 1 1 0.09 2.29
1:19 pm 13:19 Cloudy with Thunderstorms 69 20.6 65 18.3 87 87 SSE 8 13 29.86 1011 3 5 0.12 3.05
1:45 pm 13:45 Cloudy with Light Rain 69 20.6 65 18.3 87 87 SSW 8 13 29.85 1011 10 16 0.14 3.56
1:54 pm 13:54 Cloudy with Light Rain 69 20.6 65 18.3 87 87 SE 6 9 29.82 1010 10 16 0.14 3.56
2:46 pm 14:46 Cloudy 70 21.1 66 18.9 87 87 VRB 5 7 29.83 1010 10 16 0.01 0.25
2:54 pm 14:54 Cloudy 70 21.1 66 18.9 87 87 S 6 9 29.82 1010 10 16 0.01 0.25
3:26 pm 15:26 Cloudy 71 21.7 66 18.9 84 84 VRB 6 9 29.82 1010 10 16 0.00 0.00
3:54 pm 15:54 Cloudy 72 22.2 67 19.4 84 84 S 9 15 29.81 1010 10 16 0.00 0.00
4:54 pm 16:54 Mostly Cloudy 74 23.3 66 18.9 76 76 SSW 9 15 29.78 1009 10 16 0.00 0.00
5:08 pm 17:08 Mostly Cloudy 74 23.3 66 18.9 76 76 SSW 5 7 29.77 1008 10 16 0.00 0.00
5:54 pm 17:54 Cloudy 73 22.8 66 18.9 79 79 VRB 3 6 29.77 1008 10 16 0.00 0.00
6:54 pm 18:54 Cloudy 74 23.3 67 19.4 79 79 VRB 7 11 29.76 1008 10 16 0.00 0.00
7:54 pm 19:54 Mostly Cloudy 71 21.7 67 19.4 87 87 ESE 8 13 29.75 1008 10 16 0.00 0.00
8:12 pm 20:12 Mostly Cloudy 71 21.7 67 19.4 87 87 ESE 10 17 29.75 1008 10 16 0.00 0.00
8:21 pm 20:21 Cloudy 70 21.1 67 19.4 90 90 SE 9 15 29.76 1008 10 16 0.00 0.00
8:54 pm 20:54 Cloudy with Light Rain 70 21.1 67 19.4 90 90 SSE 7 11 29.76 1008 7 11 0.01 0.25
9:03 pm 21:03 Cloudy with Thunderstorms 70 21.1 67 19.4 90 90 SE 6 9 29.76 1008 6 10 0.01 0.25
9:54 pm 21:54 Cloudy with Thunderstorms 70 21.1 68 20 93 93 S 3 6 29.75 1008 6 10 0.14 3.56
10:02 pm 22:02 Cloudy with Light Rain 70 21.1 67 19.4 90 90 E 3 6 29.74 1007 5 8 0.00 0.00
10:39 pm 22:39 Cloudy with Thunderstorms 69 20.6 66 18.9 90 90 S 5 7 29.76 1008 8 13 0.02 0.51
10:49 pm 22:49 Mostly Cloudy with Thunderstorms 70 21 66 19 88 88 VRB 6 9 29.76 1008 7 11 0.02 0.51
10:54 pm 22:54 Mostly Cloudy with Thunderstorms 69 20.6 66 18.9 90 90 NW 7 11 29.76 1008 7 11 0.02 0.51
11:20 pm 23:20 Mostly Cloudy 65 18.3 62 16.7 90 90 Calm 29.76 1008 10 16 0.00 0.00
11:54 pm 23:54 Mostly Cloudy 65 18.3 62 16.7 90 90 W 3 6 29.75 1007 10 16 0.00 0.00

Powered by AerisWeather